,,,PA_Meas_PMT16A,,PR_Meas_QMR101_102,,RH_Meas_QMH101,,SR_Meas_QMS101,,TA_Meas_QMH101,,GenWind,,GenWind,
date,time,status,PA,status,PR,status,RH,status,SR,status,TA,status,DirAvg,status,SpdAvg,
2010-08-02, 00:00:04,VALID,1006.31,VALID,0,INVALID,109.429,VALID,0,VALID,24.1142,VALID,324,VALID,0,
2010-08-02, 00:01:04,VALID,1006.33,VALID,0,INVALID,109.444,VALID,0,VALID,24.0929,VALID,324,VALID,0,
2010-08-02, 00:02:04,VALID,1006.3,VALID,0,INVALID,109.482,VALID,0,VALID,24.0521,VALID,324,VALID,0,
2010-08-02, 00:03:04,VALID,1006.3,VALID,0,INVALID,109.482,VALID,0,VALID,24.0539,VALID,324,VALID,0,
2010-08-02, 00:04:04,VALID,1006.31,VALID,0,INVALID,109.474,VALID,0,VALID,24.0734,VALID,324,VALID,0,
2010-08-02, 00:05:04,VALID,1006.33,VALID,0,INVALID,109.474,VALID,0,VALID,24.0734,VALID,324,VALID,0,
2010-08-02, 00:06:04,VALID,1006.29,VALID,0,INVALID,109.444,VALID,0,VALID,24.0734,VALID,324,VALID,0,
2010-08-02, 00:07:04,VALID,1006.29,VALID,0,INVALID,109.452,VALID,0,VALID,24.0929,VALID,324,VALID,0,
2010-08-02, 00:08:04,VALID,1006.29,VALID,0,INVALID,109.467,VALID,0,VALID,24.0734,VALID,324,VALID,0,
2010-08-02, 00:09:04,VALID,1006.31,VALID,0,INVALID,109.482,VALID,0,VALID,24.0521,VALID,324,VALID,0,
2010-08-02, 00:10:04,VALID,1006.3,VALID,0,INVALID,109.474,VALID,0,VALID,24.0539,VALID,324,VALID,0,
2010-08-02, 00:11:04,VALID,1006.25,VALID,0,INVALID,109.459,VALID,0,VALID,24.0734,VALID,324,VALID,0,
2010-08-02, 00:12:04,VALID,1006.24,VALID,0,INVALID,109.429,VALID,0,VALID,24.0734,VALID,324,VALID,0,
2010-08-02, 00:13:04,VALID,1006.28,VALID,0,INVALID,109.406,VALID,0,VALID,24.0929,VALID,324,VALID,0,
2010-08-02, 00:14:04,VALID,1006.24,VALID,0,INVALID,109.391,VALID,0,VALID,24.0734,VALID,324,VALID,0,
2010-08-02, 00:15:04,VALID,1006.21,VALID,0,INVALID,109.421,VALID,0,VALID,24.0539,VALID,324,VALID,0,
2010-08-02, 00:16:04,VALID,1006.22,VALID,0,INVALID,109.52,VALID,0,VALID,24.0345,VALID,324,VALID,0,
2010-08-02, 00:17:04,VALID,1006.21,VALID,0,INVALID,109.52,VALID,0,VALID,24.015,VALID,324,VALID,0,
2010-08-02, 00:18:04,VALID,1006.2,VALID,0,INVALID,109.528,VALID,0,VALID,24.0168,VALID,324,VALID,0,
2010-08-02, 00:19:04,VALID,1006.18,VALID,0,INVALID,109.52,VALID,0,VALID,23.9955,VALID,324,VALID,0,
2010-08-02, 00:20:04,VALID,1006.17,VALID,0,INVALID,109.49,VALID,0,VALID,23.9761,VALID,324,VALID,0,
2010-08-02, 00:21:04,VALID,1006.17,VALID,0,INVALID,109.467,VALID,0,VALID,23.9761,VALID,324,VALID,0,
2010-08-02, 00:22:04,VALID,1006.18,VALID,0,INVALID,109.436,VALID,0,VALID,23.9761,VALID,324,VALID,0,
2010-08-02, 00:23:04,VALID,1006.18,VALID,0,INVALID,109.406,VALID,0,VALID,23.9566,VALID,324,VALID,0,
2010-08-02, 00:24:04,VALID,1006.15,VALID,0,INVALID,109.36,VALID,0,VALID,23.9955,VALID,320,VALID,0,
2010-08-02, 00:25:04,VALID,1006.17,VALID,0,INVALID,109.322,VALID,0,VALID,23.9742,VALID,317,VALID,0,
2010-08-02, 00:26:04,VALID,1006.16,VALID,0,INVALID,109.268,VALID,0,VALID,24.0363,VALID,317,VALID,0,
2010-08-02, 00:27:04,VALID,1006.14,VALID,0,INVALID,109.268,VALID,0,VALID,24.015,VALID,317,VALID,0,
2010-08-02, 00:28:04,VALID,1006.12,VALID,0,INVALID,109.299,VALID,0,VALID,24.015,VALID,283,VALID,0,
2010-08-02, 00:29:04,VALID,1006.14,VALID,0,INVALID,109.345,VALID,0,VALID,23.9955,VALID,269,VALID,0,
2010-08-02, 00:30:04,VALID,1006.13,VALID,0,INVALID,109.329,VALID,0,VALID,23.9955,VALID,269,VALID,0,
2010-08-02, 00:31:04,VALID,1006.12,VALID,0,INVALID,109.314,VALID,0,VALID,23.9761,VALID,269,VALID,0,
2010-08-02, 00:32:04,VALID,1006.09,VALID,0,INVALID,109.246,VALID,0,VALID,23.9955,VALID,269,VALID,0,
2010-08-02, 00:33:04,VALID,1006.1,VALID,0,INVALID,109.246,VALID,0,VALID,23.9742,VALID,270,VALID,0,
2010-08-02, 00:34:04,VALID,1006.06,VALID,0,INVALID,109.246,VALID,0,VALID,23.9955,VALID,270,VALID,0,
2010-08-02, 00:35:04,VALID,1006.07,VALID,0,INVALID,109.246,VALID,0,VALID,23.9955,VALID,270,VALID,0,
2010-08-02, 00:36:04,VALID,1006.06,VALID,0,INVALID,109.268,VALID,0,VALID,23.9955,VALID,270,VALID,0,
2010-08-02, 00:37:04,VALID,1006.06,VALID,0,INVALID,109.276,VALID,0,VALID,23.9955,VALID,270,VALID,0,
2010-08-02, 00:38:04,VALID,1006.05,VALID,0,INVALID,109.261,VALID,0,VALID,23.9955,VALID,270,VALID,0,
2010-08-02, 00:39:04,VALID,1006.07,VALID,0,INVALID,109.261,VALID,0,VALID,23.9761,VALID,270,VALID,0,
2010-08-02, 00:40:04,VALID,1006.05,VALID,0,INVALID,109.314,VALID,0,VALID,23.9761,VALID,270,VALID,0,
2010-08-02, 00:41:04,VALID,1006.04,VALID,0,INVALID,109.314,VALID,0,VALID,23.9566,VALID,270,VALID,0,
2010-08-02, 00:42:04,VALID,1006.02,VALID,0,INVALID,109.329,VALID,0,VALID,23.9566,VALID,270,VALID,0,
2010-08-02, 00:43:04,VALID,1006.01,VALID,0,INVALID,109.337,VALID,0,VALID,23.9159,VALID,270,VALID,0,
2010-08-02, 00:44:04,VALID,1006.02,VALID,0,INVALID,109.352,VALID,0,VALID,23.9584,VALID,270,VALID,0,
2010-08-02, 00:45:04,VALID,1005.96,VALID,0,INVALID,109.36,VALID,0,VALID,23.9177,VALID,270,VALID,0,
2010-08-02, 00:46:04,VALID,1005.97,VALID,0,INVALID,109.329,VALID,0,VALID,23.9177,VALID,342,VALID,0,
2010-08-02, 00:47:04,VALID,1005.99,VALID,0,INVALID,109.352,VALID,0,VALID,23.9177,VALID,348,VALID,0,
2010-08-02, 00:48:04,VALID,1005.95,VALID,0,INVALID,109.36,VALID,0,VALID,23.8964,VALID,348,VALID,0,
2010-08-02, 00:49:04,VALID,1005.94,VALID,0,INVALID,109.329,VALID,0,VALID,23.9195,VALID,348,VALID,0,
2010-08-02, 00:50:04,VALID,1005.94,VALID,0,INVALID,109.322,VALID,0,VALID,23.8787,VALID,348,VALID,0,
2010-08-02, 00:51:04,VALID,1005.94,VALID,0,INVALID,109.352,VALID,0,VALID,23.8769,VALID,350,VALID,0,
2010-08-02, 00:52:04,VALID,1005.95,VALID,0,INVALID,109.345,VALID,0,VALID,23.8593,VALID,350,VALID,0,
2010-08-02, 00:53:04,VALID,1005.94,VALID,0,INVALID,109.337,VALID,0,VALID,23.8398,VALID,350,VALID,0,
2010-08-02, 00:54:04,VALID,1005.95,VALID,0,INVALID,109.322,VALID,0,VALID,23.8593,VALID,350,VALID,0,
2010-08-02, 00:55:04,VALID,1005.96,VALID,0,INVALID,109.284,VALID,0,VALID,23.8398,VALID,350,VALID,0,
2010-08-02, 00:56:04,VALID,1005.97,VALID,0,INVALID,109.268,VALID,0,VALID,23.8398,VALID,350,VALID,0,
2010-08-02, 00:57:04,VALID,1005.99,VALID,0,INVALID,109.238,VALID,0,VALID,23.8398,VALID,350,VALID,0,
2010-08-02, 00:58:04,VALID,1005.97,VALID,0,INVALID,109.223,VALID,0,VALID,23.8398,VALID,350,VALID,0,
2010-08-02, 00:59:04,VALID,1005.96,VALID,0,INVALID,109.185,VALID,0,VALID,23.8593,VALID,350,VALID,0,
2010-08-02, 01:00:04,VALID,1005.99,VALID,0,INVALID,109.124,VALID,0,VALID,23.8398,VALID,350,VALID,0,
2010-08-02, 01:01:04,VALID,1005.94,VALID,0,INVALID,109.101,VALID,0,VALID,23.8593,VALID,350,VALID,0,
2010-08-02, 01:02:04,VALID,1005.91,VALID,0,INVALID,109.07,VALID,0,VALID,23.838,VALID,350,VALID,0,
2010-08-02, 01:03:04,VALID,1005.88,VALID,0,INVALID,109.047,VALID,0,VALID,23.8575,VALID,350,VALID,0,
2010-08-02, 01:04:04,VALID,1005.88,VALID,0,INVALID,109.032,VALID,0,VALID,23.8575,VALID,350,VALID,0,
2010-08-02, 01:05:04,VALID,1005.86,VALID,0,INVALID,109.001,VALID,0,VALID,23.8575,VALID,350,VALID,0,
2010-08-02, 01:06:04,VALID,1005.83,VALID,0,INVALID,109.001,VALID,0,VALID,23.8593,VALID,350,VALID,0,
2010-08-02, 01:07:04,VALID,1005.8,VALID,0,VALID,104,VALID,0,VALID,23.8787,VALID,350,VALID,0,
2010-08-02, 01:08:04,VALID,1005.8,VALID,0,INVALID,109.009,VALID,0,VALID,23.8398,VALID,350,VALID,0,
2010-08-02, 01:09:04,VALID,1005.81,VALID,0,INVALID,109.017,VALID,0,VALID,23.8398,VALID,350,VALID,0,
2010-08-02, 01:10:04,VALID,1005.81,VALID,0,VALID,104,VALID,0,VALID,23.8398,VALID,350,VALID,0,
2010-08-02, 01:11:04,VALID,1005.76,VALID,0,VALID,104,VALID,0,VALID,23.8593,VALID,350,VALID,0,
2010-08-02, 01:12:04,VALID,1005.79,VALID,0,VALID,104,VALID,0,VALID,23.8593,VALID,350,VALID,0,
2010-08-02, 01:13:04,VALID,1005.76,VALID,0,VALID,104,VALID,0,VALID,23.8593,VALID,350,VALID,0,
2010-08-02, 01:14:04,VALID,1005.76,VALID,0,VALID,104,VALID,0,VALID,23.8575,VALID,350,VALID,0,
2010-08-02, 01:15:04,VALID,1005.74,VALID,0,VALID,104,VALID,0,VALID,23.8593,VALID,350,VALID,0,
2010-08-02, 01:16:04,VALID,1005.73,VALID,0,VALID,104,VALID,0,VALID,23.8787,VALID,350,VALID,0,
2010-08-02, 01:17:04,VALID,1005.71,VALID,0,VALID,104,VALID,0,VALID,23.838,VALID,350,VALID,0,
2010-08-02, 01:18:04,VALID,1005.69,VALID,0,VALID,104,VALID,0,VALID,23.838,VALID,350,VALID,0,
2010-08-02, 01:19:04,VALID,1005.67,VALID,0,VALID,104,VALID,0,VALID,23.838,VALID,350,VALID,0,
2010-08-02, 01:20:04,VALID,1005.63,VALID,0,VALID,104,VALID,0,VALID,23.838,VALID,350,VALID,0,
2010-08-02, 01:21:04,VALID,1005.65,VALID,0,VALID,104,VALID,0,VALID,23.8398,VALID,350,VALID,0,
2010-08-02, 01:22:04,VALID,1005.61,VALID,0,VALID,104,VALID,0,VALID,23.838,VALID,350,VALID,0,
2010-08-02, 01:23:04,VALID,1005.6,VALID,0,VALID,104,VALID,0,VALID,23.8593,VALID,350,VALID,0,
2010-08-02, 01:24:04,VALID,1005.58,VALID,0,VALID,104,VALID,0,VALID,23.8575,VALID,350,VALID,0,
2010-08-02, 01:25:04,VALID,1005.58,VALID,0,VALID,104,VALID,0,VALID,23.8575,VALID,350,VALID,0,
2010-08-02, 01:26:04,VALID,1005.56,VALID,0,VALID,104,VALID,0,VALID,23.8787,VALID,346,VALID,0,
2010-08-02, 01:27:04,VALID,1005.52,VALID,0,VALID,104,VALID,0,VALID,23.9177,VALID,346,VALID,0,
2010-08-02, 01:28:04,VALID,1005.54,VALID,0,VALID,104,VALID,0,VALID,23.9177,VALID,346,VALID,0,
2010-08-02, 01:29:04,VALID,1005.48,VALID,0,VALID,104,VALID,0,VALID,23.9159,VALID,346,VALID,0,
2010-08-02, 01:30:04,VALID,1005.45,VALID,0,VALID,104,VALID,0,VALID,23.9371,VALID,346,VALID,0,
2010-08-02, 01:31:04,VALID,1005.45,VALID,0,VALID,104,VALID,0,VALID,23.9371,VALID,346,VALID,0,
2010-08-02, 01:32:04,VALID,1005.43,VALID,0,VALID,104,VALID,0,VALID,23.9566,VALID,346,VALID,0,
2010-08-02, 01:33:04,VALID,1005.4,VALID,0,VALID,104,VALID,0,VALID,23.9566,VALID,346,VALID,0,
2010-08-02, 01:34:04,VALID,1005.4,VALID,0,VALID,104,VALID,0,VALID,23.9566,VALID,346,VALID,0,
2010-08-02, 01:35:04,VALID,1005.39,VALID,0,VALID,104,VALID,0,VALID,23.9371,VALID,346,VALID,0,
2010-08-02, 01:36:04,VALID,1005.38,VALID,0,VALID,104,VALID,0,VALID,23.9177,VALID,346,VALID,0,
2010-08-02, 01:37:04,VALID,1005.37,VALID,0,VALID,104,VALID,0,VALID,23.8964,VALID,346,VALID,0,
2010-08-02, 01:38:04,VALID,1005.4,VALID,0,VALID,104,VALID,0,VALID,23.9177,VALID,346,VALID,0,
2010-08-02, 01:39:04,VALID,1005.43,VALID,0,VALID,104,VALID,0,VALID,23.8964,VALID,346,VALID,0,
2010-08-02, 01:40:04,VALID,1005.42,VALID,0,VALID,104,VALID,0,VALID,23.9177,VALID,346,VALID,0,
2010-08-02, 01:41:04,VALID,1005.44,VALID,0,VALID,104,VALID,0,VALID,23.9177,VALID,346,VALID,0,
2010-08-02, 01:42:04,VALID,1005.42,VALID,0,VALID,104,VALID,0,VALID,23.9159,VALID,346,VALID,0,
2010-08-02, 01:43:04,VALID,1005.41,VALID,0,VALID,104,VALID,0,VALID,23.9371,VALID,346,VALID,0,
2010-08-02, 01:44:04,VALID,1005.4,VALID,0,VALID,104,VALID,0,VALID,23.8964,VALID,346,VALID,0,
2010-08-02, 01:45:04,VALID,1005.39,VALID,0,VALID,104,VALID,0,VALID,23.8769,VALID,346,VALID,0,
2010-08-02, 01:46:04,VALID,1005.4,VALID,0,VALID,104,VALID,0,VALID,23.8769,VALID,346,VALID,0,
2010-08-02, 01:47:04,VALID,1005.4,VALID,0,VALID,104,VALID,0,VALID,23.8769,VALID,346,VALID,0,
2010-08-02, 01:48:04,VALID,1005.42,VALID,0,VALID,104,VALID,0,VALID,23.8769,VALID,346,VALID,0,
2010-08-02, 01:49:04,VALID,1005.4,VALID,0.5,VALID,104,VALID,0,VALID,23.8982,VALID,346,VALID,0,
2010-08-02, 01:50:04,VALID,1005.37,VALID,0,VALID,104,VALID,0,VALID,23.8769,VALID,346,VALID,0,
2010-08-02, 01:51:04,VALID,1005.37,VALID,0,VALID,104,VALID,0,VALID,23.8787,VALID,346,VALID,0,
2010-08-02, 01:52:04,VALID,1005.36,VALID,0,VALID,104,VALID,0,VALID,23.8575,VALID,346,VALID,0,
2010-08-02, 01:53:04,VALID,1005.34,VALID,0,VALID,104,VALID,0,VALID,23.838,VALID,346,VALID,0,
2010-08-02, 01:54:04,VALID,1005.35,VALID,0,VALID,104,VALID,0,VALID,23.8787,VALID,346,VALID,0,
2010-08-02, 01:55:04,VALID,1005.3,VALID,0,VALID,104,VALID,0,VALID,23.8982,VALID,346,VALID,0,
2010-08-02, 01:56:04,VALID,1005.28,VALID,0,VALID,104,VALID,0,VALID,23.9177,VALID,346,VALID,0,
2010-08-02, 01:57:04,VALID,1005.3,VALID,0,VALID,104,VALID,0,VALID,23.9177,VALID,346,VALID,0,
2010-08-02, 01:58:04,VALID,1005.28,VALID,0,VALID,104,VALID,0,VALID,23.8964,VALID,346,VALID,0,
2010-08-02, 01:59:04,VALID,1005.27,VALID,0,VALID,104,VALID,0,VALID,23.9159,VALID,346,VALID,0,
2010-08-02, 02:00:04,VALID,1005.26,VALID,0,VALID,104,VALID,0,VALID,23.9159,VALID,346,VALID,0,
2010-08-02, 02:01:04,VALID,1005.27,VALID,0,VALID,104,VALID,0,VALID,23.9371,VALID,346,VALID,0,
2010-08-02, 02:02:04,VALID,1005.28,VALID,0,VALID,104,VALID,0,VALID,23.9371,VALID,346,VALID,0,
2010-08-02, 02:03:04,VALID,1005.27,VALID,0,VALID,104,VALID,0,VALID,23.9566,VALID,346,VALID,0,
2010-08-02, 02:04:04,VALID,1005.26,VALID,0,VALID,104,VALID,0,VALID,23.9761,VALID,346,VALID,0,
2010-08-02, 02:05:04,VALID,1005.27,VALID,0,VALID,104,VALID,0,VALID,23.9548,VALID,346,VALID,0,
2010-08-02, 02:06:04,VALID,1005.24,VALID,0,VALID,104,VALID,0,VALID,23.9761,VALID,346,VALID,0,
2010-08-02, 02:07:04,VALID,1005.26,VALID,0,VALID,104,VALID,0,VALID,23.9742,VALID,346,VALID,0,
2010-08-02, 02:08:04,VALID,1005.23,VALID,0,VALID,104,VALID,0,VALID,23.9761,VALID,346,VALID,0,
2010-08-02, 02:09:04,VALID,1005.22,VALID,0,VALID,104,VALID,0,VALID,23.9742,VALID,346,VALID,0,
2010-08-02, 02:10:04,VALID,1005.24,VALID,0,VALID,104,VALID,0,VALID,23.9955,VALID,346,VALID,0,
2010-08-02, 02:11:04,VALID,1005.23,VALID,0,VALID,104,VALID,0,VALID,24.0132,VALID,345,VALID,0,
2010-08-02, 02:12:04,VALID,1005.21,VALID,0,VALID,104,VALID,0,VALID,23.9937,VALID,345,VALID,0,
2010-08-02, 02:13:04,VALID,1005.23,VALID,0,VALID,104,VALID,0,VALID,24.0345,VALID,345,VALID,0,
2010-08-02, 02:14:04,VALID,1005.22,VALID,0,VALID,104,VALID,0,VALID,24.0345,VALID,345,VALID,0,
2010-08-02, 02:15:04,VALID,1005.21,VALID,0,VALID,104,VALID,0,VALID,24.0345,VALID,345,VALID,0,
2010-08-02, 02:16:04,VALID,1005.19,VALID,0,VALID,104,VALID,0,VALID,24.0345,VALID,345,VALID,0,
2010-08-02, 02:17:04,VALID,1005.19,VALID,0,VALID,104,VALID,0,VALID,24.0132,VALID,345,VALID,0,
2010-08-02, 02:18:04,VALID,1005.19,VALID,0,VALID,104,VALID,0,VALID,23.9937,VALID,345,VALID,0,
2010-08-02, 02:19:04,VALID,1005.17,VALID,0,VALID,104,VALID,0,VALID,24.015,VALID,345,VALID,0,
2010-08-02, 02:20:04,VALID,1005.17,VALID,0,VALID,104,VALID,0,VALID,24.015,VALID,345,VALID,0,
2010-08-02, 02:21:04,VALID,1005.15,VALID,0,VALID,104,VALID,0,VALID,24.015,VALID,345,VALID,0,
2010-08-02, 02:22:04,VALID,1005.15,VALID,0,VALID,104,VALID,0,VALID,24.0132,VALID,345,VALID,0,
2010-08-02, 02:23:04,VALID,1005.15,VALID,0,VALID,104,VALID,0,VALID,24.0345,VALID,345,VALID,0,
2010-08-02, 02:24:04,VALID,1005.12,VALID,0,VALID,104,VALID,0,VALID,24.0326,VALID,345,VALID,0,
2010-08-02, 02:25:04,VALID,1005.12,VALID,0,VALID,104,VALID,0,VALID,24.0326,VALID,302,VALID,0,
2010-08-02, 02:26:04,VALID,1005.13,VALID,0,VALID,104,VALID,0,VALID,24.0539,VALID,302,VALID,0,
2010-08-02, 02:27:04,VALID,1005.12,VALID,0,VALID,104,VALID,0,VALID,24.0326,VALID,302,VALID,0,
2010-08-02, 02:28:04,VALID,1005.13,VALID,0,VALID,104,VALID,0,VALID,24.0326,VALID,302,VALID,0,
2010-08-02, 02:29:04,VALID,1005.14,VALID,0,VALID,104,VALID,0,VALID,24.0345,VALID,302,VALID,0,
2010-08-02, 02:30:04,VALID,1005.12,VALID,0,VALID,104,VALID,0,VALID,24.0539,VALID,302,VALID,0,
2010-08-02, 02:31:04,VALID,1005.12,VALID,0,VALID,104,VALID,0,VALID,24.0345,VALID,302,VALID,0,
2010-08-02, 02:32:04,VALID,1005.1,VALID,0,VALID,104,VALID,0,VALID,24.0539,VALID,303,VALID,0,
2010-08-02, 02:33:04,VALID,1005.11,VALID,0,VALID,104,VALID,0,VALID,24.0326,VALID,360,VALID,0,
2010-08-02, 02:34:04,VALID,1005.08,VALID,0,VALID,104,VALID,0,VALID,24.0539,VALID,360,VALID,0,
2010-08-02, 02:35:04,VALID,1005.11,VALID,0,VALID,104,VALID,0,VALID,24.0539,VALID,360,VALID,0,
2010-08-02, 02:36:04,VALID,1005.12,VALID,0,VALID,104,VALID,0,VALID,24.0539,VALID,360,VALID,0,
2010-08-02, 02:37:04,VALID,1005.1,VALID,0,VALID,104,VALID,0,VALID,24.0947,VALID,14,VALID,0,
2010-08-02, 02:38:04,VALID,1005.1,VALID,0,VALID,104,VALID,0,VALID,24.0345,VALID,354,VALID,0,
2010-08-02, 02:39:04,VALID,1005.1,VALID,0,VALID,104,VALID,0,VALID,24.0132,VALID,354,VALID,0,
2010-08-02, 02:40:04,VALID,1005.09,VALID,0,VALID,104,VALID,0,VALID,24.0345,VALID,354,VALID,0,
2010-08-02, 02:41:04,VALID,1005.09,VALID,0,VALID,104,VALID,0,VALID,24.015,VALID,351,VALID,0,
2010-08-02, 02:42:04,VALID,1005.08,VALID,0,VALID,104,VALID,0,VALID,23.9937,VALID,351,VALID,0,
2010-08-02, 02:43:04,VALID,1005.06,VALID,0,VALID,104,VALID,0,VALID,23.9937,VALID,352,VALID,0,
2010-08-02, 02:44:04,VALID,1005.05,VALID,0,VALID,104,VALID,0,VALID,24.015,VALID,351,VALID,0,
2010-08-02, 02:45:04,VALID,1005.06,VALID,0,VALID,104,VALID,0,VALID,23.9955,VALID,353,VALID,0.563281,
2010-08-02, 02:46:04,VALID,1005.06,VALID,0,VALID,104,VALID,0,VALID,23.9937,VALID,356,VALID,0.906641,
2010-08-02, 02:47:04,VALID,1005.06,VALID,0,VALID,104,VALID,0,VALID,24.0132,VALID,357,VALID,0.831641,
2010-08-02, 02:48:04,VALID,1005.04,VALID,0,VALID,104,VALID,0,VALID,24.0345,VALID,354,VALID,0.527344,
2010-08-02, 02:49:04,VALID,1005.04,VALID,0,VALID,104,VALID,0,VALID,24.0345,VALID,354,VALID,0.504687,
2010-08-02, 02:50:04,VALID,1005.04,VALID,0,VALID,104,VALID,0,VALID,24.0345,VALID,291,VALID,0.696094,
2010-08-02, 02:51:04,VALID,1005.01,VALID,0,VALID,104,VALID,0,VALID,24.0539,VALID,293,VALID,0.199609,
2010-08-02, 02:52:04,VALID,1005,VALID,0,VALID,104,VALID,0,VALID,24.0734,VALID,291,VALID,0.0917969,
2010-08-02, 02:53:04,VALID,1004.99,VALID,0,INVALID,109.085,VALID,0,VALID,24.0539,VALID,291,VALID,0.157031,
2010-08-02, 02:54:04,VALID,1004.97,VALID,0,INVALID,109.177,VALID,0,VALID,24.0716,VALID,291,VALID,0.0785156,
2010-08-02, 02:55:04,VALID,1004.96,VALID,0,INVALID,109.284,VALID,0,VALID,24.0521,VALID,291,VALID,0.341797,
2010-08-02, 02:56:04,VALID,1004.97,VALID,0,INVALID,109.391,VALID,0,VALID,24.0734,VALID,328,VALID,0.296484,
2010-08-02, 02:57:04,VALID,1004.96,VALID,0,INVALID,109.52,VALID,0,VALID,24.0308,VALID,328,VALID,0.0722656,
2010-08-02, 02:58:04,VALID,1004.96,VALID,0,INVALID,109.619,VALID,0,VALID,24.0326,VALID,328,VALID,0.00234375,
2010-08-02, 02:59:04,VALID,1004.94,VALID,0,INVALID,109.68,VALID,0,VALID,24.0539,VALID,328,VALID,0,
2010-08-02, 03:00:04,VALID,1004.94,VALID,0,INVALID,109.78,VALID,0,VALID,24.0345,VALID,328,VALID,0.000390625,
2010-08-02, 03:01:04,VALID,1004.88,VALID,0,INVALID,109.864,VALID,0,VALID,24.015,VALID,329,VALID,0,
2010-08-02, 03:02:04,VALID,1004.9,VALID,0,INVALID,109.963,VALID,0,VALID,24.015,VALID,329,VALID,0.355078,
2010-08-02, 03:03:04,VALID,1004.89,VALID,0,INVALID,110.047,VALID,0,VALID,24.0345,VALID,330,VALID,0.000390625,
2010-08-02, 03:04:04,VALID,1004.9,VALID,0,INVALID,110.108,VALID,0,VALID,24.015,VALID,342,VALID,0.458594,
2010-08-02, 03:05:04,VALID,1004.89,VALID,0,INVALID,110.207,VALID,0,VALID,24.015,VALID,342,VALID,0.189063,
2010-08-02, 03:06:04,VALID,1004.9,VALID,0,INVALID,110.253,VALID,0,VALID,23.9955,VALID,342,VALID,0.291016,
2010-08-02, 03:07:04,VALID,1004.91,VALID,0,INVALID,110.336,VALID,0,VALID,23.9955,VALID,342,VALID,0.195313,
2010-08-02, 03:08:04,VALID,1004.91,VALID,0,INVALID,110.336,VALID,0,VALID,23.9742,VALID,343,VALID,0.263281,
2010-08-02, 03:09:04,VALID,1004.92,VALID,0,INVALID,110.398,VALID,0,VALID,23.9955,VALID,344,VALID,0.304688,
2010-08-02, 03:10:04,VALID,1004.93,VALID,0,INVALID,110.504,VALID,0,VALID,23.9742,VALID,352,VALID,0.544922,
2010-08-02, 03:11:04,VALID,1004.93,VALID,0,INVALID,110.535,VALID,0,VALID,23.9761,VALID,339,VALID,0.332812,
2010-08-02, 03:12:04,VALID,1004.92,VALID,0,INVALID,110.611,VALID,0,VALID,23.9548,VALID,339,VALID,0,
2010-08-02, 03:13:04,VALID,1004.93,VALID,0,INVALID,110.657,VALID,0,VALID,23.9548,VALID,342,VALID,0.380859,
2010-08-02, 03:14:04,VALID,1004.94,VALID,0,INVALID,110.695,VALID,0,VALID,23.9353,VALID,342,VALID,0.287109,
2010-08-02, 03:15:04,VALID,1004.97,VALID,0,INVALID,110.733,VALID,0,VALID,23.9566,VALID,309,VALID,0.372266,
2010-08-02, 03:16:04,VALID,1004.95,VALID,0,INVALID,110.771,VALID,0,VALID,23.9566,VALID,309,VALID,0,
2010-08-02, 03:17:04,VALID,1004.93,VALID,0,INVALID,110.832,VALID,0,VALID,23.9742,VALID,309,VALID,0.19375,
2010-08-02, 03:18:04,VALID,1004.97,VALID,0,INVALID,110.886,VALID,0,VALID,23.9566,VALID,285,VALID,0.661719,
2010-08-02, 03:19:04,VALID,1004.97,VALID,0,INVALID,110.893,VALID,0,VALID,23.9548,VALID,284,VALID,0.102344,
2010-08-02, 03:20:04,VALID,1004.95,VALID,0,INVALID,110.97,VALID,0,VALID,23.9761,VALID,284,VALID,0,
2010-08-02, 03:21:04,VALID,1004.97,VALID,0,INVALID,111.046,VALID,0,VALID,23.9548,VALID,283,VALID,0,
2010-08-02, 03:22:04,VALID,1004.96,VALID,0,INVALID,111.13,VALID,0,VALID,23.9548,VALID,357,VALID,0.225781,
2010-08-02, 03:23:04,VALID,1004.99,VALID,0,INVALID,111.214,VALID,0,VALID,23.9566,VALID,355,VALID,0.542578,
2010-08-02, 03:24:04,VALID,1004.95,VALID,0,INVALID,111.275,VALID,0,VALID,23.9761,VALID,355,VALID,0.235547,
2010-08-02, 03:25:04,VALID,1004.97,VALID,0,INVALID,111.336,VALID,0,VALID,23.9548,VALID,1,VALID,0.766016,
2010-08-02, 03:26:04,VALID,1004.97,VALID,0,INVALID,111.435,VALID,0,VALID,23.9955,VALID,346,VALID,0.445313,
2010-08-02, 03:27:04,VALID,1004.96,VALID,0,INVALID,111.527,VALID,0,VALID,24.015,VALID,347,VALID,0.009375,
2010-08-02, 03:28:04,VALID,1004.96,VALID,0,INVALID,111.641,VALID,0,VALID,24.015,VALID,347,VALID,0,
2010-08-02, 03:29:04,VALID,1004.98,VALID,0,INVALID,111.733,VALID,0,VALID,23.9937,VALID,347,VALID,0,
2010-08-02, 03:30:04,VALID,1005.01,VALID,0,INVALID,111.824,VALID,0,VALID,23.9937,VALID,349,VALID,0.311328,
2010-08-02, 03:31:04,VALID,1005.01,VALID,0,INVALID,111.9,VALID,0,VALID,23.9742,VALID,349,VALID,0.0679687,
2010-08-02, 03:32:04,VALID,1004.99,VALID,0,INVALID,111.977,VALID,0,VALID,24.015,VALID,349,VALID,0.0015625,
2010-08-02, 03:33:04,VALID,1004.99,VALID,0,INVALID,112.045,VALID,0,VALID,23.9742,VALID,354,VALID,0.760547,
2010-08-02, 03:34:04,VALID,1005.03,VALID,0,INVALID,112.129,VALID,0,VALID,23.9548,VALID,357,VALID,0.480078,
2010-08-02, 03:35:04,VALID,1005.01,VALID,0,INVALID,112.175,VALID,0,VALID,23.9955,VALID,357,VALID,0.547656,
2010-08-02, 03:36:04,VALID,1005.03,VALID,0,INVALID,112.244,VALID,0,VALID,23.9761,VALID,355,VALID,0.370703,
2010-08-02, 03:37:04,VALID,1005.04,VALID,0,INVALID,112.274,VALID,0,VALID,23.9742,VALID,355,VALID,0.0367187,
2010-08-02, 03:38:04,VALID,1005.05,VALID,0,INVALID,112.335,VALID,0,VALID,23.9742,VALID,344,VALID,0.0277344,
2010-08-02, 03:39:04,VALID,1005.05,VALID,0,INVALID,112.366,VALID,0,VALID,23.9742,VALID,344,VALID,0.408984,
2010-08-02, 03:40:04,VALID,1005.05,VALID,0,INVALID,112.442,VALID,0,VALID,23.9761,VALID,349,VALID,0.564062,
2010-08-02, 03:41:04,VALID,1005.03,VALID,0,INVALID,112.488,VALID,0,VALID,23.9742,VALID,350,VALID,0.340625,
2010-08-02, 03:42:04,VALID,1005.04,VALID,0,INVALID,112.549,VALID,0,VALID,23.9761,VALID,348,VALID,0.518359,
2010-08-02, 03:43:04,VALID,1005.05,VALID,0,INVALID,112.579,VALID,0,VALID,23.9955,VALID,348,VALID,0,
2010-08-02, 03:44:04,VALID,1005.05,VALID,0,INVALID,112.64,VALID,0,VALID,24.015,VALID,348,VALID,0.573047,
2010-08-02, 03:45:04,VALID,1005.03,VALID,0,INVALID,112.686,VALID,0,VALID,24.015,VALID,347,VALID,0.473047,
2010-08-02, 03:46:04,VALID,1005.04,VALID,0,INVALID,112.732,VALID,0,VALID,23.9937,VALID,347,VALID,0.502734,
2010-08-02, 03:47:04,VALID,1005.04,VALID,0,INVALID,112.747,VALID,0,VALID,23.9955,VALID,354,VALID,0.789063,
2010-08-02, 03:48:04,VALID,1005.02,VALID,0,INVALID,112.785,VALID,0,VALID,23.9955,VALID,342,VALID,0.799219,
2010-08-02, 03:49:04,VALID,1005.01,VALID,0,INVALID,112.785,VALID,0,VALID,24.015,VALID,354,VALID,0.953516,
2010-08-02, 03:50:04,VALID,1005.01,VALID,0,INVALID,112.801,VALID,0,VALID,24.015,VALID,354,VALID,0.945313,
2010-08-02, 03:51:04,VALID,1004.99,VALID,0,INVALID,112.862,VALID,0,VALID,24.0345,VALID,346,VALID,0.75,
2010-08-02, 03:52:04,VALID,1005.01,VALID,0,INVALID,112.877,VALID,0,VALID,24.0539,VALID,345,VALID,0.491016,
2010-08-02, 03:53:04,VALID,1005.01,VALID,0,INVALID,112.907,VALID,0.100563,VALID,24.0503,VALID,345,VALID,0.0960938,
2010-08-02, 03:54:04,VALID,1005.02,VALID,0,INVALID,112.869,VALID,0.100563,VALID,24.0716,VALID,345,VALID,0,
2010-08-02, 03:55:04,VALID,1005.01,VALID,0,INVALID,112.877,VALID,0,VALID,24.0716,VALID,345,VALID,0.308203,
2010-08-02, 03:56:04,VALID,1005,VALID,0,INVALID,112.9,VALID,0,VALID,24.0929,VALID,347,VALID,0.400781,
2010-08-02, 03:57:04,VALID,1005.02,VALID,0,INVALID,112.892,VALID,0,VALID,24.0929,VALID,356,VALID,0.85,